• en France
  • Liste des pays
  • À 7 jours
  • Température de l'eau
  • Carte satellitaire
  • Carte météo
  • Widgets météo
  • user-avatar
    Se connecter

    Météo par heure à Boma

    Ce jour, 17 Janvier, Mercredi

    Heure Température Précipitation Vent Pression Humidité
    00:00 +23°C° 0 mm 1 m/s 700 mmHg 26%
    01:00 +21°C° 0 mm 1 m/s 700 mmHg 27%
    02:00 +21°C° 0 mm 1 m/s 700 mmHg 27%
    03:00 +20°C° 0 mm 1 m/s 699 mmHg 27%
    04:00 +20°C° 0 mm 1 m/s 699 mmHg 27%
    05:00 +19°C° 0 mm 1 m/s 699 mmHg 28%
    06:00 +19°C° 0 mm 1 m/s 700 mmHg 29%
    07:00 +19°C° 0 mm 1 m/s 700 mmHg 30%
    08:00 +23°C° 0 mm 1 m/s 700 mmHg 25%
    09:00 +27°C° 0 mm 1 m/s 701 mmHg 20%
    10:00 +31°C° 0 mm 2 m/s 701 mmHg 15%
    11:00 +34°C° 0 mm 2 m/s 701 mmHg 14%
    12:00 +36°C° 0 mm 2 m/s 700 mmHg 12%
    13:00 +38°C° 0 mm 2 m/s 700 mmHg 11%
    14:00 +38°C° 0 mm 2 m/s 699 mmHg 11%
    15:00 +38°C° 0 mm 2 m/s 699 mmHg 11%
    16:00 +37°C° 0 mm 1 m/s 698 mmHg 10%
    17:00 +34°C° 0 mm 1 m/s 698 mmHg 14%
    18:00 +30°C° 0 mm 1 m/s 698 mmHg 17%
    19:00 +25°C° 0 mm 0 m/s 698 mmHg 20%
    20:00 +26°C° 0 mm 1 m/s 698 mmHg 21%
    21:00 +25°C° 0 mm 1 m/s 699 mmHg 22%
    22:00 +24°C° 0 mm 1 m/s 699 mmHg 22%
    23:00 +23°C° 0 mm 1 m/s 699 mmHg 23%

    Demain, 18 Janvier, Jeudi

    Heure Température Précipitation Vent Pression Humidité
    00:00 +22°C° 0 mm 1 m/s 699 mmHg 23%
    01:00 +19°C° 0 mm 0 m/s 699 mmHg 24%
    02:00 +18°C° 0 mm 0 m/s 699 mmHg 25%
    03:00 +17°C° 0 mm 0 m/s 699 mmHg 27%
    04:00 +17°C° 0 mm 0 m/s 699 mmHg 28%
    05:00 +16°C° 0 mm 0 m/s 699 mmHg 31%
    06:00 +16°C° 0 mm 0 m/s 700 mmHg 33%
    07:00 +16°C° 0 mm 0 m/s 700 mmHg 36%
    08:00 +22°C° 0 mm 1 m/s 701 mmHg 29%
    09:00 +27°C° 0 mm 1 m/s 701 mmHg 22%
    10:00 +31°C° 0 mm 1 m/s 702 mmHg 16%
    11:00 +33°C° 0 mm 1 m/s 701 mmHg 14%
    12:00 +35°C° 0 mm 1 m/s 701 mmHg 12%
    13:00 +39°C° 0 mm 1 m/s 701 mmHg 9%
    14:00 +37°C° 0 mm 1 m/s 700 mmHg 10%
    15:00 +37°C° 0 mm 1 m/s 699 mmHg 10%
    16:00 +35°C° 0 mm 0 m/s 698 mmHg 10%
    17:00 +32°C° 0 mm 0 m/s 698 mmHg 13%
    18:00 +28°C° 0 mm 0 m/s 698 mmHg 16%
    19:00 +24°C° 0 mm 0 m/s 698 mmHg 19%
    20:00 +23°C° 0 mm 0 m/s 698 mmHg 20%
    21:00 +25°C° 0 mm 1 m/s 699 mmHg 20%
    22:00 +24°C° 0 mm 1 m/s 699 mmHg 21%
    23:00 +23°C° 0 mm 1 m/s 699 mmHg 22%

    Après-demain, 19 Janvier, Vendredi

    Heure Température Précipitation Vent Pression Humidité
    00:00 +22°C° 0 mm 1 m/s 699 mmHg 22%
    01:00 +21°C° 0 mm 1 m/s 699 mmHg 23%
    02:00 +20°C° 0 mm 1 m/s 699 mmHg 26%
    03:00 +19°C° 0 mm 1 m/s 699 mmHg 29%
    04:00 +17°C° 0 mm 0 m/s 698 mmHg 33%
    05:00 +17°C° 0 mm 0 m/s 699 mmHg 40%
    06:00 +17°C° 0 mm 0 m/s 699 mmHg 47%
    07:00 +16°C° 0 mm 0 m/s 700 mmHg 54%
    08:00 +23°C° 0 mm 1 m/s 700 mmHg 44%
    09:00 +27°C° 0 mm 1 m/s 701 mmHg 34%
    10:00 +31°C° 0 mm 1 m/s 702 mmHg 24%
    11:00 +33°C° 0 mm 1 m/s 701 mmHg 19%
    12:00 +35°C° 0 mm 1 m/s 701 mmHg 14%
    13:00 +37°C° 0 mm 1 m/s 700 mmHg 9%
    14:00 +37°C° 0 mm 1 m/s 700 mmHg 9%
    15:00 +37°C° 0 mm 1 m/s 699 mmHg 9%
    16:00 +35°C° 0 mm 0 m/s 698 mmHg 9%
    17:00 +31°C° 0 mm 0 m/s 698 mmHg 12%
    18:00 +28°C° 0 mm 0 m/s 698 mmHg 15%
    19:00 +24°C° 0 mm 0 m/s 698 mmHg 18%
    20:00 +23°C° 0 mm 0 m/s 698 mmHg 19%
    21:00 +22°C° 0 mm 0 m/s 699 mmHg 20%
    22:00 +21°C° 0 mm 0 m/s 699 mmHg 21%
    23:00 +22°C° 0 mm 1 m/s 699 mmHg 22%

    20 Janvier, Samedi

    Heure Température Précipitation Vent Pression Humidité
    00:00 +22°C° 0 mm 1 m/s 699 mmHg 23%
    01:00 +21°C° 0 mm 1 m/s 699 mmHg 24%
    02:00 +20°C° 0 mm 1 m/s 698 mmHg 27%
    03:00 +20°C° 0 mm 1 m/s 698 mmHg 30%
    04:00 +17°C° 0 mm 0 m/s 698 mmHg 32%
    05:00 +17°C° 0 mm 0 m/s 699 mmHg 37%
    06:00 +17°C° 0 mm 0 m/s 699 mmHg 41%
    07:00 +17°C° 0 mm 0 m/s 699 mmHg 46%
    08:00 +21°C° 0 mm 0 m/s 700 mmHg 39%
    09:00 +27°C° 0 mm 1 m/s 701 mmHg 33%
    10:00 +31°C° 0 mm 1 m/s 702 mmHg 26%
    11:00 +34°C° 0 mm 1 m/s 701 mmHg 21%
    12:00 +36°C° 0 mm 1 m/s 700 mmHg 15%
    13:00 +40°C° 0 mm 1 m/s 700 mmHg 10%
    14:00 +36°C° 0 mm 0 m/s 699 mmHg 10%
    15:00 +36°C° 0 mm 0 m/s 698 mmHg 10%
    16:00 +36°C° 0 mm 0 m/s 698 mmHg 10%
    17:00 +32°C° 0 mm 0 m/s 697 mmHg 13%
    18:00 +28°C° 0 mm 0 m/s 697 mmHg 16%
    19:00 +24°C° 0 mm 0 m/s 697 mmHg 19%
    20:00 +24°C° 0 mm 0 m/s 698 mmHg 20%
    21:00 +23°C° 0 mm 0 m/s 698 mmHg 21%
    22:00 +24°C° 0 mm 1 m/s 699 mmHg 23%
    23:00 +23°C° 0 mm 1 m/s 699 mmHg 24%

    21 Janvier, Dimanche

    Heure Température Précipitation Vent Pression Humidité
    00:00 +22°C° 0 mm 1 m/s 699 mmHg 25%
    01:00 +22°C° 0 mm 1 m/s 698 mmHg 26%
    02:00 +21°C° 0 mm 1 m/s 698 mmHg 28%
    03:00 +20°C° 0 mm 1 m/s 698 mmHg 31%
    04:00 +20°C° 0 mm 1 m/s 698 mmHg 33%
    05:00 +18°C° 0 mm 0 m/s 699 mmHg 38%
    06:00 +17°C° 0 mm 0 m/s 699 mmHg 42%
    07:00 +17°C° 0 mm 0 m/s 700 mmHg 47%
    08:00 +21°C° 0 mm 0 m/s 700 mmHg 39%
    09:00 +26°C° 0 mm 0 m/s 701 mmHg 31%
    10:00 +32°C° 0 mm 1 m/s 702 mmHg 23%
    11:00 +34°C° 0 mm 1 m/s 701 mmHg 18%
    12:00 +36°C° 0 mm 1 m/s 700 mmHg 14%
    13:00 +39°C° 0 mm 1 m/s 700 mmHg 9%
    14:00 +39°C° 0 mm 1 m/s 699 mmHg 9%
    15:00 +37°C° 0 mm 1 m/s 698 mmHg 9%
    16:00 +37°C° 0 mm 1 m/s 697 mmHg 9%
    17:00 +33°C° 0 mm 1 m/s 697 mmHg 12%
    18:00 +30°C° 0 mm 1 m/s 697 mmHg 15%
    19:00 +24°C° 0 mm 0 m/s 697 mmHg 18%
    20:00 +24°C° 0 mm 0 m/s 698 mmHg 19%
    21:00 +23°C° 0 mm 0 m/s 698 mmHg 19%
    22:00 +22°C° 0 mm 0 m/s 699 mmHg 20%
    23:00 +23°C° 0 mm 1 m/s 699 mmHg 21%

    22 Janvier, Lundi

    Heure Température Précipitation Vent Pression Humidité
    00:00 +22°C° 0 mm 1 m/s 698 mmHg 21%
    01:00 +22°C° 0 mm 1 m/s 698 mmHg 22%
    02:00 +21°C° 0 mm 1 m/s 698 mmHg 24%
    03:00 +20°C° 0 mm 1 m/s 698 mmHg 25%
    04:00 +19°C° 0 mm 1 m/s 698 mmHg 27%
    05:00 +17°C° 0 mm 0 m/s 698 mmHg 31%
    06:00 +17°C° 0 mm 0 m/s 699 mmHg 35%
    07:00 +16°C° 0 mm 0 m/s 699 mmHg 39%
    08:00 +21°C° 0 mm 0 m/s 700 mmHg 32%
    09:00 +27°C° 0 mm 1 m/s 701 mmHg 26%
    10:00 +32°C° 0 mm 1 m/s 701 mmHg 19%
    11:00 +34°C° 0 mm 1 m/s 701 mmHg 16%
    12:00 +36°C° 0 mm 1 m/s 700 mmHg 12%
    13:00 +39°C° 0 mm 1 m/s 699 mmHg 9%
    14:00 +37°C° 0 mm 1 m/s 699 mmHg 9%
    15:00 +37°C° 0 mm 1 m/s 698 mmHg 9%
    16:00 +37°C° 0 mm 1 m/s 697 mmHg 9%
    17:00 +33°C° 0 mm 1 m/s 697 mmHg 12%
    18:00 +30°C° 0 mm 1 m/s 697 mmHg 16%
    19:00 +25°C° 0 mm 0 m/s 697 mmHg 19%
    20:00 +26°C° 0 mm 1 m/s 698 mmHg 19%
    21:00 +25°C° 0 mm 1 m/s 698 mmHg 20%
    22:00 +24°C° 0 mm 1 m/s 699 mmHg 21%
    23:00 +23°C° 0 mm 1 m/s 699 mmHg 21%
    Voir plus